Flag for Austria Weather past 2 weeks in St. Pölten, Lower Austria, Austria

Now
73 °F

Passing clouds.


Feels Like: 76 °F
Forecast: 60 / 89 °F
Wind: 2 mph from Northeast

Location: Tulln Airport

Current Time: Aug 3, 2015 at 9:21:35 PM

Latest Report: Aug 3, 2015 at 8:50 PM


Visibility: 15 mi

Pressure: 30.07 "Hg

Humidity: 69%

Dew point: 63 °F

Location of St. PöltenLocation

Historic Weather in St. Pölten — Graph

°F

St. Pölten temperature yesterday

Maximum temperature yesterday: 72 °F (at 12:50 PM)
Minimum temperature yesterday: 63 °F (at 9:50 PM)
Average temperature yesterday: 66 °F

Past Weeks' High & Low Weather Summary

 TemperatureHumidityPressure
High100 °F (Jul 22, 2:50 PM)100% (Jul 29, 6:50 AM)30.15 "Hg (Jul 29, 6:50 AM)
Low57 °F (Jul 28, 5:50 AM)27% (Jul 22, 2:50 PM)29.71 "Hg (Jul 25, 5:50 AM)
Average74 °F60%29.93 "Hg
* Reported Jul 19 7:50 PM — Aug 3 7:50 PM, St. Pölten, Weather by CustomWeather, © 2015

Note: Actual official high and low records may vary slightly from our data, if they occured in-between our weather recording intervals... More about our weather records

Advertising

St. Pölten weather history for previous 24 hours

 ConditionsComfort  
Time TempWeatherWind HumidityBarometerVisibility
7:50 PM
Mon, Aug 3
81 °FPassing clouds.6 mph54%30.04 "Hg16 mi
6:50 PM82 °FPassing clouds.6 mph48%30.04 "Hg16 mi
4:50 PM86 °FPassing clouds.2 mph49%30.07 "Hg16 mi
3:50 PM86 °FPassing clouds.6 mph49%30.07 "Hg16 mi
2:50 PM82 °FPassing clouds.8 mph55%30.09 "Hg16 mi
1:50 PM82 °FPassing clouds.9 mph58%30.09 "Hg12 mi
12:50 PM77 °FPassing clouds.10 mph65%30.12 "Hg12 mi
11:50 AM75 °FScattered clouds.3 mph65%30.12 "Hg12 mi
10:50 AM72 °FPartly sunny.6 mph78%30.12 "Hg10 mi
9:50 AM66 °FPartly sunny.6 mph88%30.12 "Hg7 mi
8:50 AM64 °FLight rain. Broken clouds.2 mph94%30.12 "Hg9 mi
7:50 AM63 °FSprinkles. Broken clouds.2 mph100%30.12 "Hg9 mi
6:50 AM63 °FLight rain. Broken clouds.1 mph94%30.12 "Hg16 mi
5:50 AM63 °FPassing clouds.5 mph94%30.12 "Hg9 mi
10:50 PM
Sun, Aug 2
63 °FPassing clouds.2 mph94%30.15 "Hg7 mi
9:50 PM63 °FPassing clouds.5 mph94%30.15 "Hg7 mi
Weather by CustomWeather, © 2015

See weather overviewHow to use our weather pages